Location: Oshawa
(43.9000°N, 78.8670°W)
Time: 23:21:23
(UTC-04:00)

Cosmos 1408 Rocket - Visible Passes

Search period start: 29 April 2016 00:00
Search period end: 09 May 2016 00:00
Orbit: 602 x 631 km, 82.6° (Epoch: 29 April)

Date Brightness Start Highest point End Pass type
(mag) Time Alt. Az. Time Alt. Az. Time Alt. Az.
29 Apr 6.2 03:15:29 10° ESE 03:17:55 15° E 03:20:23 10° NE visible
29 Apr 3.8 04:52:13 18° SSW 04:55:15 50° WNW 04:59:32 10° N visible
30 Apr 5.4 03:31:50 16° SE 03:34:13 26° E 03:37:52 10° NNE visible
30 Apr 4.6 05:08:57 14° SW 05:11:56 28° WNW 05:15:44 10° NNW visible
01 May 4.4 03:48:32 26° SSE 03:50:36 47° E 03:54:50 10° NNE visible
01 May 5.3 05:25:54 10° WSW 05:28:42 17° WNW 05:31:33 10° NNW visible
02 May 3.5 04:05:12 34° S 04:07:05 87° ESE 04:11:31 10° N visible
03 May 6.0 02:44:44 12° ESE 02:46:21 15° E 02:48:46 10° NE visible
03 May 3.8 04:21:51 30° SW 04:23:40 51° WNW 04:27:59 10° N visible
04 May 5.3 03:01:21 22° ESE 03:02:38 25° E 03:06:16 10° NNE visible
04 May 4.6 04:38:28 21° WSW 04:40:20 29° WNW 04:44:12 10° NNW visible
05 May 4.4 03:17:57 37° SE 03:19:01 45° E 03:23:15 10° NNE visible
05 May 5.3 04:55:04 13° W 04:57:06 17° WNW 05:00:02 10° NNW visible
06 May 3.5 03:34:32 54° S 03:35:30 85° E 03:39:57 10° N visible
07 May 5.9 02:14:00 14° E 02:14:46 14° E 02:17:08 10° NE visible
07 May 3.8 03:51:06 43° WSW 03:52:04 53° WNW 03:56:25 10° N visible
08 May 5.2 02:30:33 24° E 02:31:04 25° E 02:34:40 10° NNE visible
08 May 4.6 04:07:38 26° W 04:08:44 30° WNW 04:12:39 10° NNW visible
